Overview Statistics Trail Chart Weather Telemetry Raw packets
 

This is the latest recevied weather packets stored in our database for station/object W4UWO. If no packets are shown the sender has not sent any weather packets the latest 10 day(s).

<< 63 64 65 66 67 68 69 >>
Time Temp. Humidity Pressure Rain* Wind** Luminosity Snow
1788181567 26.67° C 77% 1021.7 hPa 0 mm - 200 W/m² -
1788181263 26.67° C 78% 1021.6 hPa 0 mm - 181 W/m² -
1788180961 26.11° C 78% 1021.6 hPa 0 mm - 165 W/m² -
1788180657 26.11° C 78% 1021.6 hPa 0 mm - 150 W/m² -
1788180353 25.56° C 80% 1021.7 hPa 0 mm - 136 W/m² -
1788180049 25° C 83% 1021.3 hPa 0 mm - 125 W/m² -
1788179748 25° C 83% 1021.4 hPa 0 mm - 109 W/m² -
1788179443 25° C 82% 1021.5 hPa 0 mm - 99 W/m² -
1788179143 24.44° C 84% 1021.3 hPa 0 mm - 90 W/m² -
1788178839 24.44° C 85% 1021.5 hPa 0 mm - 83 W/m² -
1788178539 23.89° C 86% 1021.3 hPa 0 mm - 75 W/m² -
1788178235 23.33° C 89% 1021.2 hPa 0 mm - 66 W/m² -
1788177934 22.78° C 91% 1021.2 hPa 0 mm - 56 W/m² -
1788177630 22.22° C 93% 1021 hPa 0 mm - 46 W/m² -
1788177326 22.22° C 93% 1021.2 hPa 0 mm - 28 W/m² -
1788177021 22.22° C 93% 1021.2 hPa 0 mm - 24 W/m² -
1788176720 21.67° C 94% 1021.3 hPa 0 mm - 20 W/m² -
1788176415 21.67° C 93% 1021.2 hPa 0 mm - 16 W/m² -
1788176114 21.67° C 93% 1021.1 hPa 0 mm - 12 W/m² -
1788175810 22.22° C 93% 1020.9 hPa 0 mm - 9 W/m² -
1788175509 21.67° C 94% 1021 hPa 0 mm - 6 W/m² -
1788175204 21.67° C 95% 1021.1 hPa 0 mm - 3 W/m² -
1788174900 21.67° C 95% 1021.1 hPa 0 mm - 2 W/m² -
1788174596 21.67° C 95% 1021.1 hPa 0 mm - 1 W/m² -
1788174291 21.67° C 94% 1020.9 hPa 0 mm - 0 W/m² -

* Rain latest hour (hover to see other rain measurements)
** Current wind speed in m/s (hover to see current wind gust speed)